This is the latest recevied weather packets stored in our database for station/object K1WJY. If no packets are shown the sender has not sent any weather packets the latest 10 day(s).
| Time | Temp. | Humidity | Pressure | Rain* | Wind** | Luminosity | Snow |
|---|---|---|---|---|---|---|---|
| 1787759022 | 27.22° C | 58% | 1018.7 hPa | 0 mm | - | 779 W/m² | - |
| 1787758721 | 26.67° C | 60% | 1018.6 hPa | 0 mm | - | 698 W/m² | - |
| 1787758417 | 26.11° C | 62% | 1018.7 hPa | 0 mm | - | 688 W/m² | - |
| 1787758115 | 26.67° C | 66% | 1018.6 hPa | 0 mm | - | 701 W/m² | - |
| 1787757812 | 26.11° C | 65% | 1018.6 hPa | 0 mm | - | 706 W/m² | - |
| 1787757507 | 25° C | 67% | 1018.6 hPa | 0 mm | - | 728 W/m² | - |
| 1787757201 | 24.44° C | 71% | 1018.7 hPa | 0 mm | - | 492 W/m² | - |
| 1787756900 | 25° C | 67% | 1018.8 hPa | 0 mm | - | 142 W/m² | - |
| 1787756596 | 26.11° C | 67% | 1018.6 hPa | 0 mm | - | 172 W/m² | - |
| 1787756297 | 26.67° C | 66% | 1018.8 hPa | 0 mm | - | 793 W/m² | - |
| 1787755990 | 25.56° C | 68% | 1018.5 hPa | 0 mm | - | 771 W/m² | - |
| 1787755689 | 24.44° C | 71% | 1018.6 hPa | 0 mm | - | 778 W/m² | - |
| 1787755385 | 25.56° C | 69% | 1018.8 hPa | 0 mm | - | 166 W/m² | - |
| 1787755084 | 26.67° C | 64% | 1018.5 hPa | 0 mm | - | 729 W/m² | - |
| 1787754778 | 26.11° C | 67% | 1018.7 hPa | 0 mm | - | 782 W/m² | - |
| 1787754476 | 25.56° C | 67% | 1018.5 hPa | 0 mm | - | 739 W/m² | - |
| 1787754171 | 25.56° C | 66% | 1018.8 hPa | 0 mm | - | 729 W/m² | - |
| 1787753871 | 24.44° C | 69% | 1018.7 hPa | 0 mm | - | 727 W/m² | - |
| 1787753570 | 24.44° C | 70% | 1018.7 hPa | 0 mm | - | 712 W/m² | - |
| 1787753269 | 24.44° C | 71% | 1018.5 hPa | 0 mm | - | 702 W/m² | - |
| 1787752964 | 24.44° C | 71% | 1018.4 hPa | 0 mm | - | 697 W/m² | - |
| 1787752663 | 24.44° C | 73% | 1018.7 hPa | 0 mm | - | 677 W/m² | - |
| 1787752359 | 24.44° C | 73% | 1018.7 hPa | 0 mm | - | 650 W/m² | - |
| 1787752058 | 23.89° C | 75% | 1018.4 hPa | 0 mm | - | 619 W/m² | - |
| 1787751752 | 24.44° C | 73% | 1018.6 hPa | 0 mm | - | 619 W/m² | - |
* Rain latest hour (hover to see other rain measurements)
** Current wind speed in m/s (hover to see current wind gust speed)